Terug naar catalogus

CZ-6A DEB

ActiefSSO
NORAD 54290·DEBRIS·🇨🇳 China

Gelanceerd Nov 11, 2022 vanaf Taiyuan Satellite Launch Center

Loading…

Volgende Passages (komende 24 uur)

TLE

VersSource: Space-Track

Epoch: Sep 14, 2026, 07:07 UTC

1 54290U 22151AH  26257.29665466  .00000232  00000-0  94800-4 0  9999
2 54290  98.5782 263.7432 0124668 151.3576 209.4531 14.32016058199961

Volg CZ-6A DEB in realtime met AllMySat

Download on the App Store